�N����,����,����,����,����,�C��,���x,�~����,�S�V����,�ő�u�ԕ���,,,,,
,,,,,,,,,����,����,����,�N��,,
yyyy/mm/dd,hh:mm:ss,(16),16����,m/s,��,%,mm,KW/�u,(16),16����,m/s,Time,,
2016/2/1,1:00:00,12,��,2.5,-21.5,84.3,0,0,14,�k��,3.6,10,,
2016/2/1,2:00:00,12,��,2.5,-19.5,85.9,0,0,12,��,3.9,34,,
2016/2/1,3:00:00,12,��,2.9,-20.1,84.1,0,0,8,��,4,16,,
2016/2/1,4:00:00,12,��,2.7,-21.6,86.7,0,0,12,��,3.7,31,,
2016/2/1,5:00:00,12,��,1.9,-19.6,86.7,0,0,12,��,4.3,41,,
2016/2/1,6:00:00,12,��,2.7,-20.9,85.6,0,0,10,�쐼,4.3,58,,
2016/2/1,7:00:00,12,��,2.5,-20.5,87.4,0,0,12,��,4.5,30,,
2016/2/1,8:00:00,13,���k��,2.5,-19.2,79.7,0,0.15,13,���k��,4.6,17,,
2016/2/1,9:00:00,13,���k��,1.3,-15.4,71.5,0,0.34,12,��,3.5,4,,
2016/2/1,10:00:00,9,��쐼,0.3,-10.4,59,0,0.51,9,��쐼,3.4,53,,
2016/2/1,11:00:00,3,���k��,0.6,-2.5,39.1,0,0.6,15,�k�k��,3.7,18,,
2016/2/1,12:00:00,6,�쓌,2.3,-4.3,37.1,0,0.64,6,�쓌,4.1,57,,
2016/2/1,13:00:00,2,�k��,1.3,-3.5,41.3,0,0.62,8,��,3.7,16,,
2016/2/1,14:00:00,5,���쓌,2,-3.8,42.3,0,0.53,5,���쓌,5,10,,
2016/2/1,15:00:00,4,��,1.8,-4.7,51.2,0,0.39,5,���쓌,4,9,,
2016/2/1,16:00:00,5,���쓌,0.6,-4.1,45.8,0,0.2,4,��,2.1,20,,
2016/2/1,17:00:00,12,��,0.9,-12.7,64.6,0,0.03,5,���쓌,1.3,11,,
2016/2/1,18:00:00,12,��,1.2,-14.1,73.4,0,0,12,��,1.9,58,,
2016/2/1,19:00:00,14,�k��,1.6,-13.6,78.6,0,0,14,�k��,3.5,25,,
2016/2/1,20:00:00,12,��,1.6,-14.2,86.6,0,0,14,�k��,2.5,32,,
2016/2/1,21:00:00,13,���k��,2,-15.9,88.9,0,0,13,���k��,3.9,39,,
2016/2/1,22:00:00,13,���k��,3,-15.1,88.4,0,0,13,���k��,4.5,47,,
2016/2/1,23:00:00,13,���k��,1.9,-18,86,0,0,13,���k��,4.5,6,,
2016/2/1,0:00:00,12,��,2.3,-20.3,87.4,0,0,12,��,2.6,58,,
2016/2/2,1:00:00,13,���k��,2.5,-17.8,88.4,0,0,13,���k��,3.5,44,,
2016/2/2,2:00:00,13,���k��,2.5,-16,93.2,0,0,3,���k��,4,59,,
2016/2/2,3:00:00,12,��,2.3,-18.5,88.6,0,0,13,���k��,4.7,2,,
2016/2/2,4:00:00,12,��,1.5,-19.2,87.6,0,0,12,��,4.2,41,,
2016/2/2,5:00:00,12,��,2.4,-21.9,81.4,0,0,11,���쐼,3.6,11,,
2016/2/2,6:00:00,12,��,3.3,-21,85.5,0,0,12,��,4.2,56,,
2016/2/2,7:00:00,12,��,2.6,-21.8,84.9,0,0,12,��,3.8,12,,
2016/2/2,8:00:00,13,���k��,1.2,-20.1,85.9,0,0.14,12,��,3.3,15,,
2016/2/2,9:00:00,13,���k��,0.9,-16.8,88.3,0,0.34,12,��,2.8,12,,
2016/2/2,10:00:00,14,�k��,0.7,-11.2,75.2,0,0.51,13,���k��,1.9,5,,
2016/2/2,11:00:00,5,���쓌,2,-5.1,87.5,0,0.61,4,��,2.9,56,,
2016/2/2,12:00:00,2,�k��,1.2,-5.4,83.6,0,0.65,2,�k��,2.8,12,,
2016/2/2,13:00:00,5,���쓌,2.4,-2.7,73.2,0,0.62,5,���쓌,3.4,49,,
2016/2/2,14:00:00,7,��쓌,1.3,-3.3,57.5,0,0.44,6,�쓌,3.8,18,,
2016/2/2,15:00:00,2,�k��,1.7,-3.9,79.9,0,0.35,2,�k��,3.3,33,,
2016/2/2,16:00:00,2,�k��,1,-5.4,83.2,0,0.16,2,�k��,2.4,34,,
2016/2/2,17:00:00,15,�k�k��,0.7,-9.3,95.4,0,0.03,3,���k��,2,14,,
2016/2/2,18:00:00,13,���k��,1.6,-11,84.5,0,0,5,���쓌,2.7,22,,
2016/2/2,19:00:00,13,���k��,2.3,-12.1,82.7,0,0,12,��,3,53,,
2016/2/2,20:00:00,12,��,2.4,-13.4,83,0,0,13,���k��,3.3,33,,
2016/2/2,21:00:00,13,���k��,3.1,-10.2,72,0,0,7,��쓌,5.6,2,,
2016/2/2,22:00:00,14,�k��,3.5,-9.5,74,0,0,13,���k��,5.5,26,,
2016/2/2,23:00:00,12,��,2.9,-10.8,77.2,0,0,14,�k��,5.1,24,,
2016/2/2,0:00:00,13,���k��,3,-12,92.4,0,0,13,���k��,4.5,57,,
2016/2/3,1:00:00,13,���k��,3.7,-11.4,83.4,0,0,6,�쓌,5.4,54,,
2016/2/3,2:00:00,12,��,2.6,-17,91.2,0,0,12,��,4.9,8,,
2016/2/3,3:00:00,12,��,2.8,-16.7,89.6,0,0,12,��,3.7,12,,
2016/2/3,4:00:00,12,��,3.4,-17.8,88.5,0,0,12,��,4,58,,
2016/2/3,5:00:00,13,���k��,3.2,-14.5,89.8,0,0,12,��,4.3,31,,
2016/2/3,6:00:00,12,��,1.5,-18.8,87.5,0,0.01,12,��,4.9,13,,
2016/2/3,7:00:00,12,��,2.5,-20.3,88.6,0,0.01,11,���쐼,3.7,44,,
2016/2/3,8:00:00,12,��,1,-16.6,90.4,0,0.15,11,���쐼,3.3,2,,
2016/2/3,9:00:00,12,��,0.9,-14.3,87.3,0,0.35,12,��,2.8,14,,
2016/2/3,10:00:00,13,�É�,0.1,-8.9,70.8,0,0.51,11,���쐼,2.2,53,,
2016/2/3,11:00:00,5,���쓌,1.8,-4.6,68.4,0,0.6,5,���쓌,3,36,,
2016/2/3,12:00:00,5,���쓌,2.6,-4.9,67.9,0,0.63,4,��,4.2,54,,
2016/2/3,13:00:00,4,��,2.1,-3.2,67.4,0,0.61,5,���쓌,4.5,3,,
2016/2/3,14:00:00,4,��,2.5,-3.4,71,0,0.53,4,��,4.1,58,,
2016/2/3,15:00:00,2,�k��,1.5,-4.2,71.1,0,0.38,6,�쓌,3.7,3,,
2016/2/3,16:00:00,16,�k,1,-5.6,73,0,0.2,1,�k�k��,1.8,27,,
2016/2/3,17:00:00,12,��,0.3,-9.1,86.5,0,0.03,15,�k�k��,1.1,0,,
2016/2/3,18:00:00,12,��,1.6,-10.4,91.4,0,0,12,��,2.1,37,,
2016/2/3,19:00:00,12,��,1.1,-14.3,89.8,0,0,12,��,2.9,29,,
2016/2/3,20:00:00,13,���k��,2.2,-12.2,91.4,0,0,4,��,3.2,30,,
2016/2/3,21:00:00,13,���k��,2.4,-13,92.4,0,0,13,���k��,4.2,36,,
2016/2/3,22:00:00,12,��,1.3,-15,91.3,0,0,12,��,3.1,43,,
2016/2/3,23:00:00,12,��,1.8,-15.9,90.1,0,0,12,��,4.4,14,,
2016/2/3,0:00:00,13,���k��,2.7,-15.7,90.9,0,0,12,��,4.2,36,,
2016/2/4,1:00:00,13,���k��,3,-15.9,89.9,0,0,13,���k��,4.5,37,,
2016/2/4,2:00:00,13,���k��,3.1,-15.7,89.4,0,0,13,���k��,4.3,44,,
2016/2/4,3:00:00,12,��,1.4,-17.3,88.8,0,0,13,���k��,4.5,2,,
2016/2/4,4:00:00,12,��,2.5,-18.2,88.4,0,0,12,��,3.1,45,,
2016/2/4,5:00:00,12,��,2.3,-21.2,84.9,0,0.01,12,��,2.6,54,,
2016/2/4,6:00:00,12,��,2.8,-18.3,89.9,0,0,12,��,3.5,4,,
2016/2/4,7:00:00,12,��,2.5,-18,88.8,0,0.01,11,���쐼,4,48,,
2016/2/4,8:00:00,12,��,1.2,-17.5,88.1,0,0.11,12,��,3.4,14,,
2016/2/4,9:00:00,14,�É�,0.1,-13.8,86.8,0,0.27,12,��,2.8,21,,
2016/2/4,10:00:00,3,���k��,0.6,-10,78.2,0,0.47,2,�k��,7.6,49,,
2016/2/4,11:00:00,3,���k��,1.3,-4.2,79,0,0.38,3,���k��,3.6,41,,
2016/2/4,12:00:00,3,���k��,1,-2.2,83.2,0,0.46,3,���k��,2,59,,
2016/2/4,13:00:00,4,��,2.2,-0.3,83,0,0.6,3,���k��,4,22,,
2016/2/4,14:00:00,2,�k��,1.9,-1.1,83.2,0,0.49,3,���k��,3.4,50,,
2016/2/4,15:00:00,1,�É�,0.1,-3.2,81.9,0,0.32,1,�k�k��,3.1,15,,
2016/2/4,16:00:00,8,��,1.8,-1.7,84.6,0,0.14,9,��쐼,3.4,59,,
2016/2/4,17:00:00,9,��쐼,3.3,-1.5,88.8,0,0.03,9,��쐼,7.2,57,,
2016/2/4,18:00:00,9,��쐼,3.5,-0.8,89.9,0,0,9,��쐼,6.3,6,,
2016/2/4,19:00:00,9,��쐼,3.2,-0.9,92.1,0,0,9,��쐼,7.3,33,,
2016/2/4,20:00:00,12,��,1.8,-6.3,91.8,0,0,9,��쐼,6.6,10,,
2016/2/4,21:00:00,12,��,1.8,-11.9,94,0,0,13,���k��,3,1,,
2016/2/4,22:00:00,11,���쐼,2.5,-12.2,93.6,0,0,11,���쐼,3,55,,
2016/2/4,23:00:00,12,��,2.2,-13.6,92.2,0,0,12,��,3.8,10,,
2016/2/4,0:00:00,12,��,1.9,-14.4,91.6,0,0,11,���쐼,3.4,42,,
2016/2/5,1:00:00,12,��,2.9,-13.5,93.5,0,0,12,��,3.4,59,,
2016/2/5,2:00:00,12,��,1.2,-12.3,93.4,0,0,12,��,3.3,48,,
2016/2/5,3:00:00,12,��,2.2,-10,95.4,0,0,12,��,3.3,48,,
2016/2/5,4:00:00,13,���k��,3.1,-7.1,94.7,0,0,14,�k��,6.2,32,,
2016/2/5,5:00:00,13,���k��,2.8,-10,94.3,0,0,13,���k��,5.2,10,,
2016/2/5,6:00:00,13,���k��,3.7,-10.6,92.2,0,0,13,���k��,5.2,52,,
2016/2/5,7:00:00,12,��,2.9,-8.9,93,0,0.02,13,���k��,6.1,3,,
2016/2/5,8:00:00,13,���k��,2,-10.4,92.8,0,0.15,14,�k��,5.2,27,,
2016/2/5,9:00:00,11,���쐼,0.7,-6.1,95,0,0.34,14,�k��,2.6,50,,
2016/2/5,10:00:00,13,���k��,0.7,-0.2,63,0,0.52,9,��쐼,1.6,51,,
2016/2/5,11:00:00,12,��,4.8,0.2,49.9,0,0.43,12,��,8.6,58,,
2016/2/5,12:00:00,12,��,4.8,0.7,41.5,0,0.59,12,��,8.6,6,,
2016/2/5,13:00:00,11,���쐼,6,0.9,46.1,0,0.63,10,�쐼,11.4,31,,
2016/2/5,14:00:00,11,���쐼,6.3,0.6,44.7,0,0.65,12,��,10.5,34,,
2016/2/5,15:00:00,2,�k��,1.7,0.9,51.9,0,0.43,10,�쐼,8.9,0,,
2016/2/5,16:00:00,12,��,1.9,-1.6,44.2,0,0.2,12,��,5.2,24,,
2016/2/5,17:00:00,14,�k��,2,-2.5,51.2,0,0.04,14,�k��,3.1,56,,
2016/2/5,18:00:00,12,�É�,0,-6.5,59,0,0.01,14,�k��,3.2,1,,
2016/2/5,19:00:00,12,��,0.9,-7.5,65.6,0,0,13,���k��,1.9,42,,
2016/2/5,20:00:00,12,��,1.3,-13.1,82.7,0,0,12,��,3.2,18,,
2016/2/5,21:00:00,12,��,1.8,-13.7,83.5,0,0,11,���쐼,3.4,27,,
2016/2/5,22:00:00,13,���k��,1.6,-15,80.7,0,0,12,��,2.7,38,,
2016/2/5,23:00:00,12,��,2.2,-14.2,84.9,0,0,12,��,3.7,59,,
2016/2/5,0:00:00,12,��,2.4,-17,83.8,0,0,12,��,3.8,1,,
2016/2/6,1:00:00,12,��,1.4,-17.3,85.2,0,0,12,��,4.1,17,,
2016/2/6,2:00:00,14,�k��,0.5,-16,80.9,0,0,13,���k��,4,26,,
2016/2/6,3:00:00,13,���k��,1.7,-17,82.7,0,0,10,�쐼,4.9,21,,
2016/2/6,4:00:00,13,���k��,1.4,-16.6,88.3,0,0,12,��,4,16,,
2016/2/6,5:00:00,12,��,2.6,-18.1,87.8,0,0,12,��,4.1,45,,
2016/2/6,6:00:00,13,���k��,2.1,-19,84,0,0,12,��,3.8,5,,
2016/2/6,7:00:00,13,���k��,2.6,-16.8,84.5,0,0.01,12,��,4.3,5,,
2016/2/6,8:00:00,13,���k��,3.1,-12,76.2,0,0.17,12,��,5.7,51,,
2016/2/6,9:00:00,13,���k��,1.9,-10.4,71.8,0,0.36,12,��,4.7,10,,
2016/2/6,10:00:00,13,���k��,0.4,-6,70.3,0,0.51,9,��쐼,2.7,43,,
2016/2/6,11:00:00,6,�쓌,1.6,-2.5,61.6,0,0.61,7,��쓌,3.1,40,,
2016/2/6,12:00:00,7,��쓌,1.8,-1.3,53.4,0,0.68,8,��,4.6,59,,
2016/2/6,13:00:00,7,��쓌,2.5,-1.6,64.8,0,0.52,6,�쓌,5.6,45,,
2016/2/6,14:00:00,14,�k��,2.2,-0.4,42.2,0,0.32,10,�쐼,9.7,25,,
2016/2/6,15:00:00,12,��,5.8,-1.4,42.7,0,0.32,12,��,9.7,52,,
2016/2/6,16:00:00,12,��,3.7,-2.1,40.3,0,0.23,11,���쐼,7.6,8,,
2016/2/6,17:00:00,10,�쐼,2.8,-5.7,51.8,0,0.04,14,�k��,4.6,0,,
2016/2/6,18:00:00,12,��,1.8,-8.7,59.6,0,0.01,11,���쐼,3.5,6,,
2016/2/6,19:00:00,14,�k��,1.7,-9.6,74.6,0,0,12,��,3.5,21,,
2016/2/6,20:00:00,14,�k��,2.7,-7.6,74.1,0,0,14,�k��,3.9,27,,
2016/2/6,21:00:00,14,�k��,2.5,-8.3,73,0,0,14,�k��,4.5,32,,
2016/2/6,22:00:00,13,���k��,2,-13.2,68.4,0,0,16,�k,4.5,37,,
2016/2/6,23:00:00,14,�k��,2.1,-14,70.9,0,0,12,��,3.9,11,,
2016/2/6,0:00:00,13,���k��,2.1,-18.3,87,0,0,13,���k��,3.8,16,,
2016/2/7,1:00:00,12,��,2.3,-18.9,88.5,0,0,12,��,2.7,47,,
2016/2/7,2:00:00,12,��,2,-18.8,89,0,0,12,��,2.5,59,,
2016/2/7,3:00:00,13,���k��,1.6,-18.1,86.8,0,0,12,��,3.4,23,,
2016/2/7,4:00:00,12,��,2.3,-20.1,88.8,0,0,12,��,3.9,55,,
2016/2/7,5:00:00,12,��,2.2,-20.1,85.7,0,0.01,12,��,4.5,0,,
2016/2/7,6:00:00,13,���k��,2.3,-19.3,86.1,0,0.01,13,���k��,5.8,21,,
2016/2/7,7:00:00,12,��,3.1,-18.2,88.7,0,0.02,12,��,5.5,26,,
2016/2/7,8:00:00,13,���k��,2.5,-17.5,87.1,0,0.18,12,��,6.2,41,,
2016/2/7,9:00:00,13,���k��,0.6,-14.4,76,0,0.38,13,���k��,3.7,6,,
2016/2/7,10:00:00,12,��,0.6,-7.4,54,0,0.54,4,��,2.4,25,,
2016/2/7,11:00:00,2,�k��,0.3,-3,36.2,0,0.64,4,��,1.6,50,,
2016/2/7,12:00:00,15,�k�k��,1.1,-1.9,35.8,0,0.67,15,�k�k��,3.3,25,,
2016/2/7,13:00:00,7,��쓌,2.3,-3.2,41.3,0,0.64,8,��,3.7,50,,
2016/2/7,14:00:00,15,�k�k��,1.4,-2.5,37.7,0,0.54,13,���k��,3.3,46,,
2016/2/7,15:00:00,8,��,2.3,-3.4,40,0,0.43,8,��,4,45,,
2016/2/7,16:00:00,7,��쓌,2.7,-4.1,46.7,0,0.19,8,��,4.9,54,,
2016/2/7,17:00:00,9,��쐼,2.6,-4.9,51.4,0,0.03,7,��쓌,4.8,2,,
2016/2/7,18:00:00,10,�쐼,2.9,-3.9,65.2,0,0,10,�쐼,5.8,33,,
2016/2/7,19:00:00,8,��,2,-4.1,87.6,0,0,9,��쐼,5.2,10,,
2016/2/7,20:00:00,12,��,0.3,-4.9,95.2,0,0,8,��,3.5,10,,
2016/2/7,21:00:00,14,�k��,0.4,-8.8,94.9,0,0,4,��,3.7,29,,
2016/2/7,22:00:00,12,��,1.4,-9.5,93.7,0,0,11,���쐼,2.6,17,,
2016/2/7,23:00:00,13,���k��,1.8,-10.4,95.7,0,0,12,��,3.9,12,,
2016/2/7,0:00:00,12,��,2.5,-13.8,92.1,0,0,12,��,3,52,,
2016/2/8,1:00:00,12,��,2.1,-12.7,94.5,0,0,12,��,5,47,,
2016/2/8,2:00:00,13,���k��,2.3,-15.3,91.2,0,0,12,��,5.1,5,,
2016/2/8,3:00:00,12,��,1.7,-16.5,88,0,0,13,���k��,4.1,17,,
2016/2/8,4:00:00,14,�k��,1.6,-15.2,92.2,0,0,13,���k��,4.5,3,,
2016/2/8,5:00:00,13,���k��,2.5,-15.8,90.4,0,0,13,���k��,3.2,25,,
2016/2/8,6:00:00,12,��,1.6,-16.2,89.3,0,0,12,��,3,25,,
2016/2/8,7:00:00,11,���쐼,1,-17.9,88.6,0,0.02,12,��,2.6,12,,
2016/2/8,8:00:00,12,��,1.9,-15.6,90.8,0,0.18,12,��,2.5,0,,
2016/2/8,9:00:00,10,�쐼,1.1,-11.6,94.2,0,0.35,12,��,2.5,0,,
2016/2/8,10:00:00,9,��쐼,1.7,-5.6,64.2,0,0.53,10,�쐼,2.8,59,,
2016/2/8,11:00:00,10,�쐼,1.9,-4.4,57,0,0.63,9,��쐼,3.3,31,,
2016/2/8,12:00:00,5,���쓌,2.5,-2.3,61.6,0,0.66,5,���쓌,4.4,55,,
2016/2/8,13:00:00,5,���쓌,3.7,-3.4,63.8,0,0.63,5,���쓌,6.5,39,,
2016/2/8,14:00:00,5,���쓌,4.4,-3.3,69.9,0,0.36,5,���쓌,6.2,50,,
2016/2/8,15:00:00,5,���쓌,3.2,-3.7,71.3,0,0.26,4,��,7.2,9,,
2016/2/8,16:00:00,5,���쓌,3.5,-3.7,74.7,0,0.11,5,���쓌,5.7,52,,
2016/2/8,17:00:00,6,�쓌,2.7,-3.1,73.8,0,0.03,5,���쓌,5.7,4,,
2016/2/8,18:00:00,5,���쓌,2.8,-2.9,75.3,0,0,6,�쓌,5,14,,
2016/2/8,19:00:00,4,��,2.7,-3.9,82,0,0,4,��,4.5,31,,
2016/2/8,20:00:00,2,�k��,2,-4.6,83.5,0,0,4,��,3.8,5,,
2016/2/8,21:00:00,16,�k,1.6,-8.8,90,0,0,2,�k��,3.2,25,,
2016/2/8,22:00:00,14,�k��,2.3,-6.9,90,0,0,13,���k��,3.3,49,,
2016/2/8,23:00:00,14,�k��,2.4,-6.3,86.2,0,0,14,�k��,4.2,39,,
2016/2/8,0:00:00,14,�k��,2,-5.7,85,0,0,14,�k��,4.2,33,,
2016/2/9,1:00:00,14,�k��,2.5,-5.5,86.8,0,0,14,�k��,3.7,45,,
2016/2/9,2:00:00,14,�k��,2.4,-5.4,86.4,0,0,14,�k��,4.6,34,,
2016/2/9,3:00:00,14,�k��,2.6,-5.4,86.4,0,0,14,�k��,4.2,53,,
2016/2/9,4:00:00,13,���k��,2.7,-5.7,92.2,0,0,12,��,5,31,,
2016/2/9,5:00:00,13,���k��,3.7,-5.9,94.2,0,0,13,���k��,5.3,33,,
2016/2/9,6:00:00,13,���k��,3.3,-5.8,94.2,0,0,12,��,5.2,53,,
2016/2/9,7:00:00,13,���k��,3.2,-5.6,93.2,0,0.01,14,�k��,4.3,56,,
2016/2/9,8:00:00,14,�k��,2.9,-5.5,94.5,0,0.04,14,�k��,5.2,57,,
2016/2/9,9:00:00,14,�k��,3.7,-5.2,94.8,0,0.06,13,���k��,6.2,44,,
2016/2/9,10:00:00,13,���k��,3,-4.8,93.4,0,0.11,4,��,8,13,,
2016/2/9,11:00:00,14,�k��,2.2,-3.4,86.7,0,0.3,14,�k��,5,46,,
2016/2/9,12:00:00,14,�k��,1.2,-1.7,83.5,0,0.38,2,�k��,4.7,14,,
2016/2/9,13:00:00,1,�k�k��,1,-0.4,84.8,1,0.38,15,�k�k��,1.9,23,,
2016/2/9,14:00:00,12,��,1.6,-0.2,84.2,2,0.35,10,�쐼,7.2,34,,
2016/2/9,15:00:00,15,�k�k��,2.4,-0.7,79.6,0,0.32,15,�k�k��,3.7,52,,
2016/2/9,16:00:00,13,���k��,1.9,-3.9,87.5,0,0.17,15,�k�k��,3.7,1,,
2016/2/9,17:00:00,14,�k��,1.6,-5.9,96.9,0,0.03,4,��,2.9,21,,
2016/2/9,18:00:00,14,�k��,0.9,-8.6,93.4,0,0,1,�k�k��,3.1,7,,
2016/2/9,19:00:00,14,�k��,1,-7,96.8,0,0,13,���k��,2.2,33,,
2016/2/9,20:00:00,14,�É�,0.2,-7.9,95.1,0,0,14,�k��,4.4,30,,
2016/2/9,21:00:00,13,���k��,2.6,-8.8,99.2,0,0,2,�k��,3.7,57,,
2016/2/9,22:00:00,12,��,2.7,-13.7,90.9,0,0,12,��,3.9,53,,
2016/2/9,23:00:00,12,��,3,-13.1,92.6,0,0,12,��,3.5,57,,
2016/2/9,0:00:00,12,��,1,-13,93.6,0,0,13,���k��,4.2,18,,
2016/2/10,1:00:00,14,�k��,1.2,-9.8,96.4,0,0,11,���쐼,3.9,31,,
2016/2/10,2:00:00,14,�k��,1.3,-10.9,93.6,0,0,15,�k�k��,3.9,17,,
2016/2/10,3:00:00,12,��,2.2,-9.5,95.3,0,0,13,���k��,3.2,59,,
2016/2/10,4:00:00,13,���k��,1.2,-12.9,92.4,0,0,13,���k��,2.7,46,,
2016/2/10,5:00:00,12,��,1.7,-14.6,91.3,0,0,12,��,2.5,53,,
2016/2/10,6:00:00,13,���k��,1.3,-16.2,90.3,0,0,15,�k�k��,1.9,10,,
2016/2/10,7:00:00,14,�k��,3.1,-5.3,99.2,0,0.02,14,�k��,5.9,59,,
2016/2/10,8:00:00,14,�k��,7.9,-0.3,98.4,0,0.08,14,�k��,14,48,,
2016/2/10,9:00:00,14,�k��,7,0.5,56,0,0.21,14,�k��,14.6,45,,
2016/2/10,10:00:00,14,�k��,7.2,0.9,51.8,0,0.31,14,�k��,14.1,41,,
2016/2/10,11:00:00,14,�k��,7,1,48.1,0,0.38,14,�k��,12.6,50,,
2016/2/10,12:00:00,14,�k��,7.6,1.7,43,0,0.66,15,�k�k��,14.5,31,,
2016/2/10,13:00:00,15,�k�k��,6,1.8,45.9,0,0.66,14,�k��,13.9,15,,
2016/2/10,14:00:00,15,�k�k��,5.7,1.6,43.6,0,0.58,15,�k�k��,11.4,15,,
2016/2/10,15:00:00,14,�k��,7.4,1.1,44.8,0,0.44,14,�k��,16.1,58,,
2016/2/10,16:00:00,15,�k�k��,6.6,-0.3,53.9,0,0.25,14,�k��,13.8,10,,
2016/2/10,17:00:00,14,�k��,6.9,-1.5,51.9,0,0.04,15,�k�k��,13.7,46,,
2016/2/10,18:00:00,14,�k��,7.1,-2.2,55.5,0,0,14,�k��,15,48,,
2016/2/10,19:00:00,15,�k�k��,4.6,-2.9,56,0,0,15,�k�k��,10,2,,
2016/2/10,20:00:00,13,���k��,5.9,-2.8,54.8,0,0,14,�k��,12.3,50,,
2016/2/10,21:00:00,14,�k��,3.2,-3.5,54.8,0,0,16,�k,10.2,12,,
2016/2/10,22:00:00,14,�k��,5.3,-3.7,56.8,0,0,14,�k��,9.2,54,,
2016/2/10,23:00:00,14,�k��,4.2,-4.6,56.5,0,0,15,�k�k��,8.3,46,,
2016/2/10,0:00:00,14,�k��,3.5,-4.6,56,0,0,14,�k��,7.3,23,,
2016/2/11,1:00:00,13,���k��,2.9,-4.5,54.9,0,0,13,���k��,8.2,23,,
2016/2/11,2:00:00,13,���k��,3.4,-4,53.6,0,0,12,��,8.3,40,,
2016/2/11,3:00:00,14,�k��,4.6,-3.1,54.9,0,0,13,���k��,9,56,,
2016/2/11,4:00:00,14,�k��,5.6,-2.8,57.1,0,0,14,�k��,10.3,59,,
2016/2/11,5:00:00,14,�k��,3.5,-3.2,58.4,0,0,15,�k�k��,11.2,0,,
2016/2/11,6:00:00,14,�k��,3.1,-3.3,57.2,0,0,2,�k��,6.6,21,,
2016/2/11,7:00:00,14,�k��,3.9,-2.8,53.8,0,0.02,14,�k��,7.7,50,,
2016/2/11,8:00:00,14,�k��,3.5,-1.9,51,0,0.17,15,�k�k��,8.5,49,,
2016/2/11,9:00:00,14,�k��,4.4,-0.9,46.4,0,0.36,14,�k��,8.9,53,,
2016/2/11,10:00:00,14,�k��,3.5,-0.3,45.7,0,0.51,13,���k��,8.4,6,,
2016/2/11,11:00:00,14,�k��,4.6,0.3,41.9,0,0.63,14,�k��,7.7,18,,
2016/2/11,12:00:00,14,�k��,3.4,0.9,41.2,0,0.67,13,���k��,7.4,0,,
2016/2/11,13:00:00,2,�k��,1.7,2,49.6,0,0.66,2,�k��,6.2,25,,
2016/2/11,14:00:00,6,�쓌,2.2,1.2,48.9,0,0.58,5,���쓌,4,40,,
2016/2/11,15:00:00,7,��쓌,2.5,0.3,60.3,0,0.43,7,��쓌,4.6,16,,
2016/2/11,16:00:00,8,��,1.8,-0.7,64.5,0,0.24,8,��,4.3,24,,
2016/2/11,17:00:00,8,��,0.3,-3.2,83,0,0.06,8,��,2.8,1,,
2016/2/11,18:00:00,14,�k��,0.8,-7,92.7,0,0,13,���k��,2,34,,
2016/2/11,19:00:00,13,���k��,2.2,-9.6,91.1,0,0,11,���쐼,3.1,57,,
2016/2/11,20:00:00,13,���k��,1.7,-10.6,91.4,0,0,13,���k��,3.2,5,,
2016/2/11,21:00:00,14,�k��,0.9,-14.4,90.1,0,0,16,�k,2.1,33,,
2016/2/11,22:00:00,12,��,1.8,-13.9,87.5,0,0,11,���쐼,2.6,48,,
2016/2/11,23:00:00,12,��,2.5,-13.2,94.3,0,0,12,��,2.9,53,,
2016/2/11,0:00:00,13,���k��,1.8,-14.4,90.3,0,0,12,��,2.9,32,,
2016/2/12,1:00:00,12,��,1.5,-13.9,92.2,0,0,12,��,2.4,30,,
2016/2/12,2:00:00,12,��,1.9,-14.8,90.6,0,0,12,��,3.1,34,,
2016/2/12,3:00:00,12,��,1.3,-15,90.8,0,0,13,���k��,3.8,31,,
2016/2/12,4:00:00,12,��,1.4,-14.3,91.2,0,0,12,��,3.4,17,,
2016/2/12,5:00:00,12,��,1.7,-15.1,89.9,0,0,13,���k��,3.5,41,,
2016/2/12,6:00:00,12,��,2.6,-14.9,91.4,0,0,11,���쐼,3.9,59,,
2016/2/12,7:00:00,13,���k��,1.8,-13.5,91.2,0,0.02,11,���쐼,4.7,7,,
2016/2/12,8:00:00,12,��,1.4,-12.3,90.1,0,0.17,13,���k��,3.3,21,,
2016/2/12,9:00:00,12,��,2.3,-7.8,77.5,0,0.36,12,��,3,15,,
2016/2/12,10:00:00,12,��,1.6,-4.9,72.2,0,0.46,13,���k��,2.8,0,,
2016/2/12,11:00:00,5,���쓌,0.4,0.3,72.2,0,0.53,12,��,2.3,16,,
2016/2/12,12:00:00,7,��쓌,1.5,-1.2,74.9,0,0.45,7,��쓌,2.6,44,,
2016/2/12,13:00:00,5,���쓌,1.5,-0.8,80.6,0,0.3,7,��쓌,3.1,1,,
2016/2/12,14:00:00,5,���쓌,0.7,-0.8,78.1,0,0.36,6,�쓌,2.3,17,,
2016/2/12,15:00:00,4,��,0.9,-1.4,82.7,0,0.31,5,���쓌,1.9,38,,
2016/2/12,16:00:00,6,�쓌,0.6,-3.5,85.3,0,0.11,5,���쓌,1.9,19,,
2016/2/12,17:00:00,13,���k��,0.4,-6.1,93.6,0,0.03,7,��쓌,1.3,0,,
2016/2/12,18:00:00,13,���k��,0.7,-6.5,93.5,0,0,12,��,1.3,0,,
2016/2/12,19:00:00,3,���k��,0.3,-5.6,96.4,0,0,12,��,3.2,44,,
2016/2/12,20:00:00,14,�k��,0.5,-6,95.2,0,0,12,��,8.6,7,,
2016/2/12,21:00:00,14,�k��,1.1,-4.3,93.2,0,0,13,���k��,2.5,24,,
2016/2/12,22:00:00,14,�k��,1.9,-3,88.1,0,0,13,���k��,2.8,52,,
2016/2/12,23:00:00,14,�k��,2,-2.8,82,0,0,13,���k��,3.4,43,,
2016/2/12,0:00:00,13,���k��,1.1,-3.8,88.5,0,0,14,�k��,3.4,6,,
2016/2/13,1:00:00,12,��,1.9,-3.5,86.3,0,0,12,��,2.6,46,,
2016/2/13,2:00:00,11,���쐼,1.2,-4,89.8,0,0,14,�k��,2.6,20,,
2016/2/13,3:00:00,11,���쐼,1.5,-3.8,88.9,0,0,10,�쐼,2.9,0,,
2016/2/13,4:00:00,9,��쐼,3.2,-1.2,79.2,0,0,9,��쐼,5.1,57,,
2016/2/13,5:00:00,14,�k��,0.7,-2.7,88.2,0,0,10,�쐼,5.4,1,,
2016/2/13,6:00:00,4,��,0.4,-2.5,87.6,0,0,12,��,2.6,39,,
2016/2/13,7:00:00,16,�k,0.5,-4,86.3,0,0.01,4,��,2.9,36,,
2016/2/13,8:00:00,3,���k��,0.4,-1.1,83,0,0.14,5,���쓌,1.7,51,,
2016/2/13,9:00:00,15,�k�k��,0.3,1,73.5,0,0.16,16,�k,2,49,,
2016/2/13,10:00:00,9,��쐼,0.8,1.3,81.2,0,0.15,11,���쐼,2.2,13,,
2016/2/13,11:00:00,7,��쓌,1.2,3.4,79.2,0,0.16,7,��쓌,2.7,44,,
2016/2/13,12:00:00,9,��쐼,2.8,7.7,75.2,0,0.25,10,�쐼,8.6,29,,
2016/2/13,13:00:00,9,��쐼,2.2,8.8,66.4,0,0.5,9,��쐼,7.8,31,,
2016/2/13,14:00:00,10,�쐼,4.4,8.1,74.4,0,0.27,10,�쐼,9,27,,
2016/2/13,15:00:00,9,��쐼,3.5,7.4,82.1,0,0.22,9,��쐼,8.7,20,,
2016/2/13,16:00:00,9,��쐼,5.6,6,91,0,0.08,8,��,10.9,25,,
2016/2/13,17:00:00,9,��쐼,6.3,5.2,94.1,0,0.03,9,��쐼,10.3,54,,
2016/2/13,18:00:00,10,�쐼,4.6,5.2,92.6,0,0,8,��,10.3,3,,
2016/2/13,19:00:00,14,�k��,2.9,2.8,87.9,0,0,10,�쐼,5.6,6,,
2016/2/13,20:00:00,15,�k�k��,1.7,2,85.6,0,0,13,���k��,6.3,19,,
2016/2/13,21:00:00,14,�k��,2.5,2.3,84.4,0,0,13,���k��,4.5,44,,
2016/2/13,22:00:00,13,���k��,2.6,3.1,85.2,0,0,14,�k��,4.8,58,,
2016/2/13,23:00:00,14,�k��,1.8,2.5,83.7,0,0,13,���k��,5,28,,
2016/2/13,0:00:00,1,�k�k��,1.3,1.3,94.5,0,0,6,�쓌,4,13,,
2016/2/14,1:00:00,12,��,1.6,1.3,94,0,0,12,��,2.5,54,,
2016/2/14,2:00:00,9,��쐼,0.7,1.1,96,0,0,8,��,2.5,21,,
2016/2/14,3:00:00,13,���k��,0.7,1.2,95.9,0,0,14,�k��,1.7,43,,
2016/2/14,4:00:00,4,��,0.4,1.6,94.8,0,0,14,�k��,3.4,30,,
2016/2/14,5:00:00,2,�k��,2.7,2.3,95.1,0,0,1,�k�k��,7.1,38,,
2016/2/14,6:00:00,4,��,0.6,2.2,97.7,1,0,2,�k��,3.9,2,,
2016/2/14,7:00:00,2,�k��,2.5,2.7,99,3.5,0.01,1,�k�k��,4.4,29,,
2016/2/14,8:00:00,2,�k��,4.7,1.9,98.8,4,0.02,2,�k��,8.1,47,,
2016/2/14,9:00:00,16,�k,1.9,1.5,96.9,2,0.04,2,�k��,9.2,7,,
2016/2/14,10:00:00,13,���k��,0.9,1.4,97.7,1,0.09,2,�k��,2.8,1,,
2016/2/14,11:00:00,14,�k��,1.5,1.8,97.9,2.5,0.11,13,���k��,2.9,31,,
2016/2/14,12:00:00,2,�k��,1.4,1.4,98.3,3.5,0.12,16,�k,4.2,22,,
2016/2/14,13:00:00,3,���k��,0.5,2.1,98.6,1,0.18,4,��,2.6,22,,
2016/2/14,14:00:00,3,���k��,2.4,1.5,98.6,0.5,0.17,3,���k��,3.3,58,,
2016/2/14,15:00:00,5,���쓌,0.9,1.4,98.2,0.5,0.15,2,�k��,2.7,21,,
2016/2/14,16:00:00,8,��,1,1.2,98.5,0,0.07,6,�쓌,1.7,59,,
2016/2/14,17:00:00,5,���쓌,0.8,0.8,99.7,0,0.02,2,�k��,8.1,20,,
2016/2/14,18:00:00,5,���쓌,1.4,0.6,100,0,0,5,���쓌,2.3,50,,
2016/2/14,19:00:00,6,�쓌,0.9,0.3,100,0,0,5,���쓌,2.6,38,,
2016/2/14,20:00:00,7,��쓌,0.9,0.3,100,0,0,6,�쓌,4.3,36,,
2016/2/14,21:00:00,15,�k�k��,1.6,0.3,100,0,0,15,�k�k��,2.7,58,,
2016/2/14,22:00:00,14,�k��,2.9,-0.4,99.8,0,0,14,�k��,7,41,,
2016/2/14,23:00:00,14,�k��,3.1,-0.7,95.1,0,0,13,���k��,5.2,6,,
2016/2/14,0:00:00,13,���k��,1.6,-1.7,95,0,0,13,���k��,4.9,31,,
2016/2/15,1:00:00,8,��,2.2,-2,97.4,0,0,8,��,7.2,23,,
2016/2/15,2:00:00,1,�k�k��,1.1,-1.4,81.3,0,0,1,�k�k��,4.9,4,,
2016/2/15,3:00:00,14,�k��,1.1,-1.5,64.1,0,0,1,�k�k��,4.3,1,,
2016/2/15,4:00:00,11,���쐼,1.3,-4.8,82.5,0,0,15,�k�k��,3.9,7,,
2016/2/15,5:00:00,4,��,0.6,-6.6,86.6,0,0,10,�쐼,2.4,18,,
2016/2/15,6:00:00,11,���쐼,0.5,-8.6,94.4,0,0,5,���쓌,1.8,5,,
2016/2/15,7:00:00,13,���k��,1.1,-9.4,95.4,0,0.01,12,��,2.3,46,,
2016/2/15,8:00:00,12,��,1.5,-7.6,93.1,0,0.07,12,��,2.9,52,,
2016/2/15,9:00:00,11,���쐼,1.7,-1.6,62,0,0.35,12,��,3.2,3,,
2016/2/15,10:00:00,9,��쐼,3.2,-1,64.4,0,0.47,8,��,7.5,59,,
2016/2/15,11:00:00,10,�쐼,5.2,-1,66.3,0,0.71,10,�쐼,8.8,49,,
2016/2/15,12:00:00,10,�쐼,7.1,-1.1,55.5,0,0.72,11,���쐼,10.5,40,,
2016/2/15,13:00:00,11,���쐼,6.6,-1,44,0,0.72,10,�쐼,11.6,19,,
2016/2/15,14:00:00,11,���쐼,6.2,-1.7,39.7,0,0.66,12,��,12.4,41,,
2016/2/15,15:00:00,11,���쐼,6.8,-3.3,43.4,0,0.48,9,��쐼,13.3,5,,
2016/2/15,16:00:00,11,���쐼,8.6,-5.3,46.8,0,0.26,10,�쐼,16.8,56,,
2016/2/15,17:00:00,11,���쐼,4.3,-6.1,47.5,0,0.02,11,���쐼,15.3,2,,
2016/2/15,18:00:00,11,���쐼,6.6,-7.4,46.8,0,0,12,��,9.9,49,,
2016/2/15,19:00:00,11,���쐼,4.4,-8.2,49.3,0,0,10,�쐼,8.2,2,,
2016/2/15,20:00:00,11,���쐼,4.2,-8.5,50.7,0,0,11,���쐼,7.9,8,,
2016/2/15,21:00:00,11,���쐼,5,-8.2,49.3,0,0,11,���쐼,9.5,34,,
2016/2/15,22:00:00,11,���쐼,5.3,-9.1,54.8,0,0,11,���쐼,8,35,,
2016/2/15,23:00:00,15,�k�k��,1.8,-10.2,56.4,0,0,11,���쐼,7.5,0,,
2016/2/15,0:00:00,12,��,1.5,-12.7,64.8,0,0,12,��,2.5,42,,
2016/2/16,1:00:00,11,���쐼,2.4,-12.8,63.8,0,0,11,���쐼,3.4,55,,
2016/2/16,2:00:00,11,���쐼,2.1,-13.3,58.4,0,0,11,���쐼,4.4,11,,
2016/2/16,3:00:00,12,��,2.1,-15.9,78.5,0,0,11,���쐼,2.9,9,,
2016/2/16,4:00:00,15,�k�k��,1.5,-16.3,77.8,0,0,12,��,3.3,15,,
2016/2/16,5:00:00,3,���k��,0.4,-15.8,77.7,0,0,2,�k��,2.3,51,,
2016/2/16,6:00:00,12,��,1.8,-17.1,77.1,0,0,10,�쐼,2.9,51,,
2016/2/16,7:00:00,12,��,2.4,-17.4,77.7,0,0.04,12,��,3.4,55,,
2016/2/16,8:00:00,12,��,2.4,-13.8,68,0,0.22,12,��,5.7,33,,
2016/2/16,9:00:00,13,���k��,0.5,-5.6,50.4,0,0.42,12,��,3.4,36,,
2016/2/16,10:00:00,3,���k��,0.6,-2.7,42.4,0,0.58,12,��,3.6,46,,
2016/2/16,11:00:00,14,�k��,0.8,-2.9,41,0,0.68,12,��,5.5,30,,
2016/2/16,12:00:00,11,���쐼,5.9,-2.6,43.7,0,0.74,10,�쐼,9.8,58,,
2016/2/16,13:00:00,12,��,6.5,-3,42.6,0,0.66,11,���쐼,10.9,4,,
2016/2/16,14:00:00,12,��,5.7,-2.6,43.6,0,0.45,11,���쐼,9.7,13,,
2016/2/16,15:00:00,12,��,2.5,-2.5,52.2,0,0.46,11,���쐼,6.9,0,,
2016/2/16,16:00:00,12,��,4.6,-2.7,51.5,0,0.28,12,��,8.2,50,,
2016/2/16,17:00:00,8,�É�,0.1,-4.4,53.5,0,0.07,12,��,6.9,4,,
2016/2/16,18:00:00,5,���쓌,1,-6.8,62.4,0,0,5,���쓌,1.3,59,,
2016/2/16,19:00:00,12,�É�,0.1,-9.9,72.6,0,0,11,���쐼,2.3,51,,
2016/2/16,20:00:00,12,��,1.6,-10,77.9,0,0,13,���k��,3.5,46,,
2016/2/16,21:00:00,12,��,1.2,-11.1,81.7,0,0,12,��,3,25,,
2016/2/16,22:00:00,9,��쐼,2.8,-3.4,75.7,0,0,9,��쐼,5,59,,
2016/2/16,23:00:00,10,�쐼,2.8,-4.1,68.6,0,0,8,��,4.8,3,,
2016/2/16,0:00:00,12,��,2.4,-6.5,83.7,0,0,13,���k��,4.2,58,,
2016/2/17,1:00:00,13,���k��,1.3,-9.7,75.8,0,0,13,���k��,4.4,40,,
2016/2/17,2:00:00,12,��,2.7,-11.2,80.3,0,0,14,�k��,3.5,59,,
2016/2/17,3:00:00,12,��,3,-13,87,0,0,13,���k��,4.3,48,,
2016/2/17,4:00:00,11,���쐼,2.1,-13.6,87.8,0,0,11,���쐼,5.7,27,,